Regional Weather Roundup
Issued by NWS

Home | Current Version | Previous Version | Text Only | Print | Product List | Glossary Off
Versions: 1 2 3 4 5 6 7 8 9 10 11 12 13 14 15 16 17 18 19 20 21 22 23 24 25 26 27 28 29 30 31 32 33 34 35 36 37 38 39 40 41 42 43 44 45 46 47 48 49 50

000
ASUS43 KDMX 171707
RWRIA

WEATHER ROUNDUP FOR IOWA
NATIONAL WEATHER SERVICE DES MOINES IA
1200 PM CDT WED SEP 17 2014

NOTE: "FAIR" INDICATES FEW OR NO CLOUDS BELOW 12,000 FEET WITH NO
SIGNIFICANT WEATHER AND/OR OBSTRUCTIONS TO VISIBILITY.

* - THESE STATIONS ARE NOT NWS STATIONS...THUS NOT UNDER NWS
QUALITY CONTROL.  THEY ALSO DO NOT REPORT WEATHER SUCH
AS PRECIPITATION OR FOG.

IAZ001>003-012>014-020>022-031>034-043>046-171800-
   NORTHWEST IOWA

CITY           SKY/WX    TMP DP  RH WIND       PRES   REMARKS
CARROLL *      SUNNY     72  55  56 CALM      29.95S
CHEROKEE *     SUNNY     72  55  56 CALM      29.95S
DENISON *      SUNNY     72  59  64 CALM      29.93S
LE MARS *      SUNNY     72  59  64 VRB5      29.94S
ORANGE CITY *  SUNNY     72  55  56 CALM      29.94S
SHELDON *      MOSUNNY   70  55  60 CALM      29.94R
SIOUX CITY     SUNNY     72  58  61 CALM      29.93F
SPENCER        PTSUNNY   70  55  59 SW3       29.95S
STORM LAKE *   SUNNY     70  59  68 VRB5      29.95S
$$

IAZ055>058-069>071-079>083-090>094-171800-
   SOUTHWEST IOWA

CITY           SKY/WX    TMP DP  RH WIND       PRES   REMARKS
ATLANTIC *     SUNNY     72  61  68 VRB3      29.94S
AUDUBON *      SUNNY     73  55  53 NE5       29.96S
CLARINDA *     PTSUNNY   72  63  73 SE3       29.96S
COUNCIL BLFS * SUNNY     72  64  78 VRB7      29.93F
CRESTON *      MOSUNNY   72  61  68 S8        29.96S
HARLAN  *      SUNNY     73  59  60 E5        29.98S
LAMONI         SUNNY     70  61  73 VRB5      29.96S
SHENANDOAH *   PTSUNNY   70  63  78 E8        29.95F
$$

IAZ047>049-059>061-072>074-084-171800-
   CENTRAL IOWA

CITY           SKY/WX    TMP DP  RH WIND       PRES   REMARKS
AMES           CLOUDY    67  57  70 SE3       29.97S
ANKENY *       PTSUNNY   68  57  68 SE5       29.97S
CHARITON *     MOSUNNY   72  59  64 E7        29.97S
DES MOINES     MOSUNNY   72  59  63 CALM      29.96F
GRINNELL*      CLOUDY    66  56  69 CALM      29.99S
KNOXVILLE *    SUNNY     68  59  73 VRB5      29.96F
MARSHALLTOWN   SUNNY     65  55  70 S7        29.98S
PELLA *        SUNNY     69  58  69 CALM      29.99S
PERRY *          N/A     71  57  62 E5        29.96F
$$

IAZ004>006-015-016-023>025-035-036-171800-
   NORTH CENTRAL IOWA

CITY           SKY/WX    TMP DP  RH WIND       PRES   REMARKS
ALGONA *       SUNNY     70  54  56 VRB3      29.97S
CLARION *        N/A     70  54  56 VRB6      29.97S
ESTHERVILLE    SUNNY     69  56  62 CALM      29.96R
FORT DODGE *   SUNNY     68  54  60 CALM      29.97F
MASON CITY     SUNNY     68  52  56 CALM      29.99S
FOREST CITY *    N/A     68  54  60 SE3       29.97F
IOWA FALLS *     N/A     68  52  56 S6        29.99S
$$

IAZ007>011-017>019-026>030-037>042-050>054-066-171800-
   NORTHEAST IOWA

CITY           SKY/WX    TMP DP  RH WIND       PRES   REMARKS
CEDAR RAPIDS   MOSUNNY   65  55  70 S8        29.99F
CHARLES CITY * SUNNY     66  50  55 CALM      30.00S
CLINTON *      MOSUNNY   64  54  68 S9        30.04F
DECORAH *      SUNNY     64  50  59 SW3       29.99F
DUBUQUE        PTSUNNY   63  47  55 SW3       30.02S
MONTICELLO *   SUNNY     68  50  52 VRB7      30.00S
OELWEIN *      SUNNY     66  50  55 SW5       30.00F
WATERLOO       SUNNY     66  50  56 SE3       29.98F
$$

IAZ064-065-067-068-078-171800-
   EAST CENTRAL IOWA

CITY           SKY/WX    TMP DP  RH WIND       PRES   REMARKS
DAVENPORT      CLOUDY    64  50  60 S9        30.02S
IOWA CITY      CLOUDY    63  55  75 S9        30.01F
MT. PLEASANT * CLOUDY    63  54  72 SE6       30.01S
MUSCATINE *    CLOUDY    66  54  63 SE10      30.01S
QUAD CITIES    CLOUDY    65  52  62 S6        30.01F
$$

IAZ062-063-075>077-085>089-095>099-171800-
   SOUTHEAST IOWA

CITY           SKY/WX    TMP DP  RH WIND       PRES   REMARKS
BURLINGTON     PTSUNNY   62  55  77 S9        30.01
FAIRFIELD *    CLOUDY    64  57  77 SE8       30.00S
FORT MADISON * PTSUNNY   63  55  77 SE7       30.01F
KEOKUK *       CLOUDY    61  55  82 SE9       29.99F
OSKALOOSA *    PTSUNNY   66  59  77 SE6       29.99S
CENTERVILLE *    N/A     68  61  77 E6        29.99S
OTTUMWA        SUNNY     67  58  72 S7        29.98F
WASHINGTON *   CLOUDY    64  57  77 VRB7      30.00S
$$

ABBREVIATIONS USED IN REMARKS
   TC - TEMPERATURES IN CELSIUS
  WCI - WIND CHILL INDEX
   HX - HEAT INDEX
  VSB - VISIBILITY
$$




USA.gov is the U.S. government's official web portal to all federal, state and local government web resources and services.